Weather History for KMLT - July, 2013

Change the Weather History Date:

Wednesday, July 10, 2013

  Actual Average Record
Temperature  
Mean Temperature 71 °F 68 °F  
Max Temperature 77 °F 78 °F 97 °F (1955)
Min Temperature 65 °F 58 °F 40 °F (1934)
Degree Days  
Heating Degree Days 0 1  
Month to date heating degree days 3 10  
Since 1 June heating degree days 104 126  
Since 1 July heating degree days 3 10  
Cooling Degree Days 6 4  
Month to date cooling degree days 84 37  
Year to date cooling degree days 153 92  
Since 1 June cooling degree days 145 86  
Growing Degree Days 20 (Base 50)    
Moisture  
Dew Point 63 °F    
Average Humidity 81    
Maximum Humidity 93    
Minimum Humidity 68    
Precipitation  
Precipitation 0.03 in 0.14 in 1.86 in (1964)
Month to date precipitation 0.29 1.35  
Year to date precipitation 17.16 20.49  
Sea Level Pressure  
Sea Level Pressure 29.96 in    
Wind  
Wind Speed 5 mph (SSE)    
Max Wind Speed 10 mph    
Max Gust Speed 17 mph    
Visibility 9 miles    
Events Rain    
T = Trace of Precipitation, MM = Missing Value Source: NWS Daily Summary

Daily Weather History Graph

Daily Weather History Graph

Search for Another Location

Airport or City:

Trip Planner

Search our weather history database for the weather conditions in past years. The results will help you decide how hot, cold, wet, or windy it might be!

Date:

Astronomy

Jul. 10, 2013 Rise Set
Actual Time 4:55 AM EDT 8:24 PM EDT
Civil Twilight 4:18 AM EDT 9:01 PM EDT
Nautical Twilight 3:29 AM EDT 9:49 PM EDT
Astronomical Twilight 2:26 AM EDT 10:52 PM EDT
Moon 7:22 AM EDT (7/10) 9:20 PM EDT (7/10)
Length of Visible Light 16h 42m
Length of Day
15h 28m
Waxing Crescent, 5% of the Moon is Illuminated
Jul 10
Waxing Crescent
Jul 15
First Quarter
Jul 22
Full
Jul 29
Last Quarter
Aug 6
New

Hourly Weather History & Observations

Time (EDT) Temp. Dew Point Humidity Pressure Visibility Wind Dir Wind Speed Gust Speed Precip Events Conditions
12:36 AM 66.2 °F 62.6 °F 88% 30.09 in 10.0 mi South 4.6 mph - N/A   Overcast
12:53 AM 66.9 °F 63.0 °F 87% 30.10 in 10.0 mi Calm Calm - N/A   Overcast
1:53 AM 66.0 °F 62.1 °F 87% 30.09 in 10.0 mi South 3.5 mph - N/A   Overcast
2:53 AM 66.0 °F 62.1 °F 87% 30.07 in 10.0 mi Variable 4.6 mph - N/A   Overcast
3:53 AM 64.9 °F 62.1 °F 90% 30.07 in 9.0 mi Variable 3.5 mph - N/A   Overcast
4:38 AM 64.4 °F 62.6 °F 94% 30.06 in 10.0 mi Calm Calm - N/A   Overcast
4:53 AM 64.9 °F 62.1 °F 90% 30.07 in 10.0 mi Calm Calm - N/A   Overcast
5:53 AM 64.9 °F 62.1 °F 90% 30.06 in 10.0 mi Variable 3.5 mph - N/A   Overcast
6:53 AM 64.9 °F 62.1 °F 90% 30.06 in 7.0 mi Calm Calm - N/A   Overcast
7:53 AM 64.9 °F 61.0 °F 87% 30.05 in 10.0 mi Variable 4.6 mph - N/A   Overcast
8:06 AM 64.4 °F 60.8 °F 88% 30.03 in 10.0 mi SSE 5.8 mph - N/A   Overcast
8:48 AM 66.2 °F 60.8 °F 83% 30.03 in 9.0 mi South 5.8 mph - N/A   Overcast
8:53 AM 66.0 °F 61.0 °F 84% 30.04 in 9.0 mi SSE 4.6 mph - N/A   Overcast
9:53 AM 66.0 °F 62.1 °F 87% 30.02 in 6.0 mi Variable 3.5 mph - N/A   Overcast
10:53 AM 68.0 °F 62.1 °F 81% 30.01 in 8.0 mi Variable 3.5 mph - N/A   Overcast
11:02 AM 68.0 °F 62.6 °F 83% 30.00 in 9.0 mi Variable 6.9 mph - N/A   Overcast
11:53 AM 70.0 °F 62.1 °F 76% 29.99 in 10.0 mi Variable 6.9 mph - N/A   Overcast
12:53 PM 73.0 °F 63.0 °F 71% 29.97 in 10.0 mi Variable 3.5 mph - N/A   Overcast
1:39 PM 73.4 °F 62.6 °F 69% 29.95 in 10.0 mi Variable 4.6 mph - N/A   Overcast
1:53 PM 73.9 °F 63.0 °F 68% 29.95 in 10.0 mi Variable 6.9 mph - N/A   Overcast
2:53 PM 75.0 °F 64.0 °F 69% 29.93 in 10.0 mi Variable 6.9 mph 17.3 mph N/A   Mostly Cloudy
3:09 PM 77.0 °F 64.4 °F 65% 29.91 in 10.0 mi Variable 6.9 mph - N/A   Overcast
3:53 PM 73.9 °F 63.0 °F 68% 29.91 in 10.0 mi South 9.2 mph - N/A   Overcast
4:09 PM 73.4 °F 62.6 °F 69% 29.88 in 10.0 mi SSE 10.4 mph 16.1 mph N/A   Mostly Cloudy
4:44 PM 73.4 °F 62.6 °F 69% 29.87 in 10.0 mi Variable 4.6 mph - N/A   Overcast
4:53 PM 72.0 °F 64.0 °F 76% 29.88 in 5.0 mi South 5.8 mph - 0.00 in Rain Light Rain
5:53 PM 71.1 °F 63.0 °F 75% 29.87 in 10.0 mi South 6.9 mph - 0.00 in   Overcast
6:53 PM 70.0 °F 63.0 °F 78% 29.85 in 10.0 mi South 6.9 mph - N/A   Overcast
7:08 PM 69.8 °F 62.6 °F 78% 29.84 in 10.0 mi Variable 4.6 mph - N/A   Overcast
7:53 PM 69.1 °F 64.0 °F 84% 29.84 in 10.0 mi Variable 4.6 mph - N/A   Overcast
8:39 PM 68.0 °F 64.4 °F 88% 29.83 in 10.0 mi Variable 4.6 mph - N/A   Overcast
8:53 PM 68.0 °F 64.0 °F 87% 29.84 in 9.0 mi Variable 6.9 mph - N/A   Overcast
9:53 PM 66.9 °F 64.9 °F 93% 29.83 in 8.0 mi Variable 6.9 mph - 0.00 in Rain Light Rain
10:13 PM 66.2 °F 64.4 °F 94% 29.82 in 7.0 mi SSE 4.6 mph - 0.00 in Rain Light Rain
10:53 PM 66.0 °F 64.9 °F 96% 29.82 in 7.0 mi Variable 3.5 mph - 0.00 in   Overcast
11:53 PM 66.0 °F 64.0 °F 93% 29.79 in 6.0 mi SSE 4.6 mph - 0.02 in   Overcast